Home   Weather   Lund   Past weeks

Flag for Sweden Past Weather in Lund, Sweden — Yesterday and Last 2 Weeks

Now
48 °F

Passing clouds.


Feels Like: 42 °F
Forecast: 44 / 47 °F
Wind: 15 mph from West

Location: Malmo / Sturup

Current Time: Dec 8, 2016 at 7:27:07 pm

Latest Report: Dec 8, 2016 at 6:50 pm


Visibility: N/A

Pressure: 29.98 "Hg

Humidity: 94%

Dew Point: 46 °F

Location of LundLocation

Past Weather in Lund — Graph

°F

Lund Temperature Yesterday

Maximum temperature yesterday: 45 °F (at 10:50 pm)
Minimum temperature yesterday: 25 °F (at 12:50 am)
Average temperature yesterday: 37 °F

High & Low Weather Summary for the Past Weeks

 TemperatureHumidityPressure
High50 °F (Dec 8, 11:20 am)100% (Nov 24, 8:50 am)30.51 "Hg (Nov 24, 8:50 am)
Low23 °F (Dec 3, 3:20 am)55% (Nov 28, 11:50 am)29.53 "Hg (Dec 1, 7:20 pm)
Average38 °F87%30.12 "Hg
* Reported Nov 23 6:20 pm — Dec 8 6:20 pm, Lund, Weather by CustomWeather, © 2016

Note: Actual official high and low records may vary slightly from our data, if they occured in-between our weather recording intervals... More about our weather records

Advertising

Lund Weather History for the Previous 24 Hours

Scroll right to see more
 ConditionsComfort  
Time TempWeatherWind HumidityBarometerVisibility
6:20 pm
Thu, Dec 8
48 °FPassing clouds.17 mph94%29.95 "HgN/A
5:50 pm48 °FPassing clouds.17 mph94%29.98 "HgN/A
5:20 pm48 °FClear.22 mph94%29.98 "Hg10 mi
4:50 pm48 °FClear.18 mph94%30.01 "Hg10 mi
4:20 pm48 °FClear.18 mph94%29.98 "Hg10 mi
3:50 pm50 °FClear.17 mph88%30.01 "Hg10 mi
3:20 pm50 °FSunny.16 mph88%29.98 "Hg10 mi
2:50 pm50 °FSunny.15 mph88%29.98 "Hg10 mi
2:20 pm50 °FPassing clouds.18 mph88%29.98 "HgN/A
1:50 pm50 °FPartly sunny.14 mph94%30.01 "HgN/A
1:20 pm50 °FFog.15 mph94%29.98 "Hg5 mi
12:50 pm50 °FFog.16 mph94%29.98 "Hg6 mi
12:20 pm50 °FFog.15 mph94%29.98 "Hg6 mi
11:50 am50 °FFog.16 mph94%29.98 "Hg2 mi
11:20 am50 °FFog.21 mph94%29.98 "Hg1 mi
10:50 am48 °FFog.21 mph100%29.98 "Hg1 mi
10:20 am48 °FFog.21 mph100%29.98 "Hg1 mi
9:50 am48 °FFog.18 mph100%29.98 "Hg1 mi
9:20 am48 °FFog.20 mph100%29.98 "Hg1 mi
8:50 am48 °FFog.20 mph100%29.98 "Hg1 mi
8:20 am48 °FFog.20 mph100%29.98 "Hg2 mi
7:50 am48 °FFog.21 mph94%29.98 "Hg2 mi
7:20 am48 °FFog.21 mph94%29.98 "Hg3 mi
6:50 am48 °FFog.23 mph94%29.98 "Hg4 mi
6:20 am48 °FFog.21 mph94%29.95 "Hg2 mi
5:50 am48 °FFog.20 mph94%29.95 "Hg2 mi
5:20 am48 °FFog.20 mph94%29.98 "Hg2 mi
4:50 am48 °FFog.20 mph94%29.95 "Hg3 mi
4:20 am46 °FFog.20 mph100%29.98 "Hg2 mi
3:20 am46 °FFog.14 mph93%30.01 "Hg1 mi
2:20 am45 °FFog.12 mph100%30.04 "Hg1 mi
1:50 am45 °FFog.12 mph100%30.04 "Hg1 mi
1:20 am45 °FFog.14 mph100%30.04 "Hg1 mi
12:50 am46 °FFog.17 mph93%30.04 "Hg1 mi
12:20 am45 °FFog.17 mph100%30.04 "Hg1 mi
11:50 pm
Wed, Dec 7
45 °FFog.16 mph100%30.04 "Hg1 mi
11:20 pm45 °FFog.16 mph93%30.04 "Hg1 mi
10:50 pm45 °FFog.17 mph93%30.04 "Hg1 mi
10:20 pm43 °FFog.16 mph100%30.07 "Hg2 mi
9:50 pm43 °FFog.20 mph93%30.07 "Hg2 mi
9:20 pm43 °FFog.18 mph93%30.07 "Hg2 mi
8:50 pm43 °FFog.22 mph93%30.07 "Hg2 mi
8:20 pm43 °FFog.20 mph93%30.07 "Hg2 mi
7:50 pm41 °FFog.18 mph100%30.07 "Hg2 mi
7:20 pm41 °FFog.20 mph100%30.09 "Hg1 mi
Weather by CustomWeather, © 2016

See weather overviewHow to use our weather pages